Regional Weather Roundup
Issued by NWS

Home | Current Version | Previous Version | Text Only | Print | Product List | Glossary On
Versions: 1 2 3 4 5 6 7 8 9 10 11 12 13 14 15 16 17 18 19 20 21 22 23 24 25 26 27 28 29 30 31 32 33 34 35 36 37 38 39 40 41 42 43 44 45 46 47 48 49 50
345
ASUS43 KBIS 270402
RWRND

NORTH DAKOTA REGIONAL WEATHER ROUNDUP
NATIONAL WEATHER SERVICE BISMARCK ND
1100 PM CDT WED JUL 26 2017

NOTE: "FAIR" INDICATES FEW OR NO CLOUDS BELOW 12,000 FEET WITH NO
SIGNIFICANT WEATHER AND/OR OBSTRUCTIONS TO VISIBILITY.


NDZ001>003-009>011-017-270500-
NORTHWEST NORTH DAKOTA

CITY           SKY/WX    TMP DP  RH WIND       PRES   REMARKS
WILLISTON      CLEAR     78  53  41 E12       30.08R
MINOT          CLEAR     67  55  65 E7        30.11S
MINOT AFB      CLEAR     64  56  74 SE5       30.10S
$$

NDZ018>021-031>035-040>046-270500-
SOUTHWEST NORTH DAKOTA

CITY           SKY/WX    TMP DP  RH WIND       PRES   REMARKS
BISMARCK       CLEAR     70  55  59 E8        30.12R
DICKINSON      CLEAR     70  50  49 E10       30.10R
GARRISON         N/A     69  54  58 E12       30.12R
HETTINGER ARPT CLEAR     72  53  51 E10       30.13R
$$

NDZ004>008-012>016-024-026-027-054-270500-
NORTHEAST NORTH DAKOTA

CITY           SKY/WX    TMP DP  RH WIND       PRES   REMARKS
GRAND FORKS    CLEAR     65  61  87 NW6       30.07S
GRND FRKS AFB  CLEAR     61  58  90 NW3       30.09R
DEVILS LAKE    CLEAR     66  58  75 CALM      30.13R
$$

NDZ022-023-025-028>030-036>039-047>053-270500-
SOUTHEAST NORTH DAKOTA

CITY           SKY/WX    TMP DP  RH WIND       PRES   REMARKS
FARGO          CLEAR     67  61  81 CALM      30.08R
JAMESTOWN      CLEAR     64  58  80 CALM      30.12R
$$





USA.gov is the U.S. government's official web portal to all federal, state and local government web resources and services.